Location: Newark
(52.0178°N, 4.7453°W)
Time: 16:47:28
(UTC+00:00)

ISS - Pass Details

Date: 24 March 2019
Orbit: 408 x 410 km, 51.6° (Epoch: 27 April)

Event Time Altitude Azimuth Distance (km) Brightness Sun altitude
Rises 20:00:08 0° 231° (SW) 2,330 0.5 -13.1°
Reaches altitude 10° 20:02:18 10° 223° (SW) 1,471 -0.7 -13.4°
Maximum altitude 20:05:22 37° 154° (SSE) 656 -3.2 -13.8°
Enters shadow 20:06:22 29° 114° (ESE) 784 -3.0 -14.0°
